Kecskemet, Hungary

4:09 AM CET on March 25, 2017 (GMT +0100)
Kecskemet

Weather History for LHKE - September, 2013

Change the Weather History Date:

Friday, September 27, 2013

  Actual Average (LHBP) Record (LHBP)
Temperature  
Mean Temperature 52 °F -  
Max Temperature 59 °F 66 °F 84 °F (2012)
Min Temperature 44 °F 46 °F 39 °F (1996)
Degree Days  
Heating Degree Days 14    
Growing Degree Days 2 (Base 50)    
Moisture  
Dew Point 43 °F    
Average Humidity 70    
Maximum Humidity 94    
Minimum Humidity 44    
Precipitation  
Precipitation 0.00 in - - ()
Sea Level Pressure  
Sea Level Pressure 30.04 in    
Wind  
Wind Speed 5 mph ()    
Max Wind Speed 11 mph    
Max Gust Speed -    
Visibility 5.5 miles    
Events      
Averages and records for this station are not official NWS values.
T = Trace of Precipitation, MM = Missing Value Source: Averaged Metar Reports

Daily Weather History Graph

Daily Weather History Graph

Search for Another Location

Airport or City:

Trip Planner

Search our weather history database for the weather conditions in past years. The results will help you decide how hot, cold, wet, or windy it might be!

Date:

Astronomy

Sep. 27, 2013 Rise Set
Actual Time 6:34 AM CEST 6:28 PM CEST
Civil Twilight 6:04 AM CEST 6:58 PM CEST
Nautical Twilight 5:28 AM CEST 7:34 PM CEST
Astronomical Twilight 4:52 AM CEST 8:10 PM CEST
Moon 11:47 PM CEST (9/27) 2:14 PM CEST (9/27)
Length of Visible Light 12h 54m
Length of Day
11h 54m
Waning Gibbous, 48% of the Moon is Illuminated
Sep 27
Waning Gibbous
Oct 5
New
Oct 12
First Quarter
Oct 19
Full
Oct 27
Last Quarter

Hourly Weather History & Observations

Time (CEST) Temp. Dew Point Humidity Pressure Visibility Wind Dir Wind Speed Gust Speed Precip Events Conditions
12:15 AM 53.6 °F 51.8 °F 94% 29.95 in - NW 6.7 mph - N/A   Clear
12:45 AM 55.4 °F 51.8 °F 88% 29.95 in 5.0 mi NW 8.9 mph - N/A   Unknown
1:15 AM 53.6 °F 51.8 °F 94% 29.98 in 3.7 mi NW 11.2 mph - N/A   Unknown
1:45 AM 53.6 °F 51.8 °F 94% 29.98 in 3.7 mi North 6.7 mph - N/A   Unknown
2:15 AM 53.6 °F 50.0 °F 88% 29.98 in 3.7 mi NNW 6.7 mph - N/A   Unknown
2:45 AM 53.6 °F 50.0 °F 88% 29.95 in 4.3 mi North 8.9 mph - N/A   Unknown
3:15 AM 53.6 °F 50.0 °F 88% 30.01 in 4.3 mi NNE 4.5 mph - N/A   Unknown
3:45 AM - - N/A% - 6.2 mi ENE 6.7 mph - N/A   Scattered Clouds
4:15 AM 51.8 °F 44.6 °F 76% 30.01 in 5.0 mi North 4.5 mph - N/A   Unknown
4:45 AM 51.8 °F 44.6 °F 76% 30.01 in - NE 2.2 mph - N/A   Clear
5:15 AM 48.2 °F 44.6 °F 87% 30.01 in - Calm Calm - N/A   Clear
5:45 AM 46.4 °F 42.8 °F 87% 30.04 in 6.2 mi Calm Calm - N/A   Partly Cloudy
6:15 AM 44.6 °F 42.8 °F 93% 30.04 in 6.2 mi ENE 2.2 mph - N/A   Scattered Clouds
6:45 AM 46.4 °F 42.8 °F 87% 30.04 in 6.2 mi ESE 2.2 mph - N/A   Mostly Cloudy
7:15 AM 48.2 °F 42.8 °F 82% 30.04 in 6.2 mi ESE 4.5 mph - N/A   Mostly Cloudy
7:45 AM 50.0 °F 42.8 °F 76% 30.06 in 6.2 mi ESE 4.5 mph - N/A   Mostly Cloudy
8:15 AM 50.0 °F 42.8 °F 76% 30.06 in 6.2 mi ENE 4.5 mph - N/A   Mostly Cloudy
8:45 AM 51.8 °F 41.0 °F 67% 30.06 in - East 11.2 mph - N/A   Clear
9:15 AM 51.8 °F 41.0 °F 67% 30.09 in 6.2 mi East 11.2 mph - N/A   Mostly Cloudy
9:45 AM - - N/A% - 6.2 mi ENE 8.9 mph - N/A   Mostly Cloudy
10:15 AM 53.6 °F 41.0 °F 62% 30.09 in 6.2 mi ENE 8.9 mph - N/A   Mostly Cloudy
10:45 AM 55.4 °F 41.0 °F 58% 30.09 in 6.2 mi East 4.5 mph - N/A   Mostly Cloudy
11:15 AM 55.4 °F 37.4 °F 51% 30.09 in 6.2 mi East 8.9 mph - N/A   Scattered Clouds
11:45 AM 57.2 °F 35.6 °F 44% 30.09 in 6.2 mi ENE 6.7 mph - N/A   Mostly Cloudy
12:15 PM 57.2 °F 37.4 °F 48% 30.09 in 6.2 mi SSE 6.7 mph - N/A   Scattered Clouds
12:45 PM 59.0 °F 37.4 °F 45% 30.09 in 6.2 mi SSE 4.5 mph - N/A   Scattered Clouds
1:15 PM 59.0 °F 37.4 °F 45% 30.06 in 6.2 mi NE 4.5 mph - N/A   Scattered Clouds
1:45 PM 57.2 °F 37.4 °F 48% 30.06 in 6.2 mi East 4.5 mph - N/A   Scattered Clouds
2:15 PM 59.0 °F 37.4 °F 45% 30.06 in - South 4.5 mph - N/A   Clear
2:45 PM 57.2 °F 37.4 °F 48% 30.06 in - South 4.5 mph - N/A   Clear
3:15 PM 57.2 °F 37.4 °F 48% 30.04 in - Calm Calm - N/A   Clear
3:45 PM - - N/A% - 6.2 mi Variable 4.5 mph - N/A   Clear
4:15 PM 57.2 °F 37.4 °F 48% 30.04 in - Calm Calm - N/A   Clear
4:45 PM 57.2 °F 39.2 °F 51% 30.04 in - Calm Calm - N/A   Clear
5:15 PM 57.2 °F 41.0 °F 55% 30.04 in - Calm Calm - N/A   Clear
5:45 PM 57.2 °F 41.0 °F 55% 30.04 in - WNW 2.2 mph - N/A   Clear
6:15 PM 55.4 °F 44.6 °F 67% 30.04 in - Calm Calm - N/A   Clear
6:45 PM - - N/A% - 6.2 mi Variable 4.5 mph - N/A   Clear
7:15 PM 55.4 °F 42.8 °F 63% 30.04 in - West 2.2 mph - N/A   Clear
7:45 PM 53.6 °F 44.6 °F 72% 30.04 in - West 4.5 mph - N/A   Clear
8:15 PM 53.6 °F 44.6 °F 72% 30.04 in - WNW 4.5 mph - N/A   Clear
8:45 PM 53.6 °F 46.4 °F 77% 30.04 in - WNW 4.5 mph - N/A   Clear
9:15 PM 53.6 °F 46.4 °F 77% 30.04 in - WNW 6.7 mph - N/A   Clear
9:45 PM - - N/A% - 1.7 mi Variable 4.5 mph - N/A   Clear
10:15 PM 53.6 °F 46.4 °F 77% 30.04 in - WNW 4.5 mph - N/A   Clear
10:45 PM 51.8 °F 46.4 °F 82% 30.04 in - NW 2.2 mph - N/A   Clear
11:15 PM 51.8 °F 46.4 °F 82% 30.04 in - NNW 4.5 mph - N/A   Clear
11:45 PM 51.8 °F 46.4 °F 82% 30.04 in - NW 4.5 mph - N/A   Clear